Location: DARK SKY Beskydy - Park tmavé oblohy, www.darkskybeskydy.cz
(49.4926°N, 18.5016°E)
Time: 18:52:41
(UTC+02:00)

PCSat - Pass Details

Date: 10 August 2024
Orbit: 781 x 793 km, 67.1° (Epoch: 08 September)

Event Time Altitude Azimuth Distance (km) Brightness Sun altitude
Rises 22:47:13 0° 316° (NW) 3,298 14.3 -19.7°
Reaches altitude 10° 22:51:05 10° 344° (NNW) 2,369 13.2 -20.1°
Maximum altitude 22:53:37 13° 12° (NNE) 2,151 12.4 -20.3°
Drops below altitude 10° 22:56:08 10° 40° (NE) 2,368 12.3 -20.5°
Sets 23:00:01 0° 67° (ENE) 3,296 12.7 -20.8°
